Key West, FL

9:07 PM EDT on September 28, 2016 (GMT -0400)
Key West International

Weather History for KEYW - June, 2013

Change the Weather History Date:

Sunday, June 9, 2013

  Actual Average Record
Temperature  
Mean Temperature 84 °F 83 °F  
Max Temperature 87 °F 87 °F 93 °F (1878)
Min Temperature 81 °F 79 °F 70 °F (1906)
Degree Days  
Heating Degree Days 0 0  
Month to date heating degree days 0 0  
Since 1 June heating degree days 0 0  
Since 1 July heating degree days 28 73  
Cooling Degree Days 19 18  
Month to date cooling degree days 143 159  
Year to date cooling degree days 1772 1589  
Since 1 June cooling degree days 143 159  
Growing Degree Days 34 (Base 50)    
Moisture  
Dew Point 75 °F    
Average Humidity 77    
Maximum Humidity 85    
Minimum Humidity 68    
Precipitation  
Precipitation 0.00 in 0.14 in 3.18 in (1997)
Month to date precipitation 3.79 1.25  
Year to date precipitation 18.58 11.88  
Snow  
Snow 0.00 in - - ()
Month to date snowfall 0.0  
Since 1 June snowfall 0.0  
Since 1 July snowfall 0.0  
Snow Depth 0.00 in    
Sea Level Pressure  
Sea Level Pressure 30.04 in    
Wind  
Wind Speed 14 mph (ESE)    
Max Wind Speed 20 mph    
Max Gust Speed 24 mph    
Visibility 10 miles    
Events      
T = Trace of Precipitation, MM = Missing Value Source: NWS Daily Summary

Daily Weather History Graph

Daily Weather History Graph

Search for Another Location

Airport or City:

Trip Planner

Search our weather history database for the weather conditions in past years. The results will help you decide how hot, cold, wet, or windy it might be!

Date:

Astronomy

Jun. 09, 2013 Rise Set
Actual Time 6:37 AM EDT 8:15 PM EDT
Civil Twilight 6:12 AM EDT 8:40 PM EDT
Nautical Twilight 5:41 AM EDT 9:11 PM EDT
Astronomical Twilight 5:09 AM EDT 9:43 PM EDT
Moon 7:27 AM EDT (6/9) 9:08 PM EDT (6/9)
Length of Visible Light 14h 28m
Length of Day
13h 37m
New Moon, 1% of the Moon is Illuminated
Jun 9
New Moon
Jun 16
First Quarter
Jun 23
Full
Jun 30
Last Quarter
Jul 8
New

Hourly Weather History & Observations

Time (EDT) Temp. Heat Index Dew Point Humidity Pressure Visibility Wind Dir Wind Speed Gust Speed Precip Events Conditions
12:53 AM 82.0 °F 90.2 °F 77.0 °F 85% 30.08 in 10.0 mi ESE 10.4 mph - N/A   Clear
1:53 AM 82.0 °F 89.4 °F 75.9 °F 82% 30.06 in 10.0 mi East 11.5 mph - N/A   Clear
2:53 AM 82.0 °F 89.4 °F 75.9 °F 82% 30.04 in 10.0 mi East 13.8 mph - N/A   Clear
3:53 AM 82.0 °F 88.6 °F 75.0 °F 79% 30.04 in 10.0 mi ESE 11.5 mph - N/A   Clear
4:53 AM 81.0 °F 86.7 °F 75.0 °F 82% 30.03 in 10.0 mi East 13.8 mph - N/A   Clear
5:53 AM 81.0 °F 87.3 °F 75.9 °F 85% 30.03 in 10.0 mi East 12.7 mph - N/A   Clear
6:53 AM 82.0 °F 88.6 °F 75.0 °F 79% 30.04 in 10.0 mi ESE 13.8 mph - N/A   Clear
7:53 AM 82.0 °F 87.9 °F 73.9 °F 76% 30.04 in 10.0 mi ESE 13.8 mph - N/A   Clear
8:53 AM 82.9 °F 89.4 °F 73.9 °F 74% 30.05 in 10.0 mi ESE 15.0 mph - N/A   Clear
9:53 AM 84.0 °F 91.9 °F 75.0 °F 74% 30.07 in 10.0 mi ESE 15.0 mph - N/A   Clear
10:53 AM 84.9 °F 93.3 °F 75.0 °F 72% 30.06 in 10.0 mi ESE 15.0 mph - N/A   Clear
11:53 AM 86.0 °F 95.1 °F 75.0 °F 70% 30.07 in 10.0 mi East 15.0 mph - N/A   Clear
12:53 PM 87.1 °F 96.3 °F 75.0 °F 67% 30.07 in 10.0 mi East 13.8 mph - N/A   Clear
1:53 PM 87.1 °F 97.3 °F 75.9 °F 69% 30.06 in 10.0 mi East 17.3 mph - N/A   Clear
2:53 PM 86.0 °F 96.0 °F 75.9 °F 72% 30.04 in 10.0 mi East 15.0 mph - N/A   Clear
3:53 PM 86.0 °F 96.0 °F 75.9 °F 72% 30.03 in 10.0 mi East 13.8 mph - N/A   Partly Cloudy
4:53 PM 86.0 °F 96.0 °F 75.9 °F 72% 30.02 in 10.0 mi East 16.1 mph - N/A   Partly Cloudy
5:53 PM 84.9 °F 95.3 °F 77.0 °F 77% 30.01 in 10.0 mi East 11.5 mph - N/A   Partly Cloudy
6:53 PM 84.0 °F 92.6 °F 75.9 °F 76% 30.00 in 10.0 mi East 13.8 mph - N/A   Clear
7:53 PM 82.9 °F 90.2 °F 75.0 °F 77% 30.00 in 10.0 mi East 13.8 mph - N/A   Clear
8:53 PM 82.0 °F 88.6 °F 75.0 °F 79% 30.03 in 10.0 mi East 17.3 mph 23.0 mph N/A   Clear
9:53 PM 82.0 °F 88.6 °F 75.0 °F 79% 30.05 in 10.0 mi East 17.3 mph - N/A   Clear
10:53 PM 82.9 °F 90.8 °F 75.9 °F 79% 30.06 in 10.0 mi East 13.8 mph - N/A   Clear
11:53 PM 82.9 °F 90.8 °F 75.9 °F 79% 30.06 in 10.0 mi ESE 12.7 mph - N/A   Partly Cloudy